| time (UTC) | temp F | wind direction | speed knots | gust knots | rain 1hr in | rain 24hr in | rain mn in | humidity % | barometer mb |
| 20260502130306 | 42 | 258 | 1.7 | 2.6 | 0.00 | 0.04 | 0.04 | 87 | 1009.2 |
| 20260502123752 | 41 | 350 | 0.9 | 1.7 | 0.00 | 0.04 | 0.04 | 92 | 1009.1 |
| 20260502123249 | 41 | 359 | 1.7 | 1.7 | 0.00 | 0.04 | 0.04 | 91 | 1009.2 |
| 20260502122745 | 40 | 323 | 2.6 | 2.6 | 0.00 | 0.04 | 0.04 | 91 | 1009.1 |
| 20260502122241 | 40 | 288 | 2.6 | 4.3 | 0.00 | 0.04 | 0.04 | 91 | 1009.2 |
| 20260502121740 | 40 | 21 | 1.7 | 1.7 | 0.00 | 0.04 | 0.04 | 92 | 1009.2 |
| 20260502121238 | 40 | 313 | 2.6 | 4.3 | 0.00 | 0.04 | 0.04 | 93 | 1009.2 |
| 20260502120733 | 40 | 315 | 1.7 | 1.7 | 0.00 | 0.04 | 0.04 | 93 | 1008.9 |
| 20260502120230 | 40 | 48 | 0.0 | 0.9 | 0.00 | 0.04 | 0.04 | 94 | 1009.0 |
| 20260502115728 | 40 | 44 | 0.9 | 1.7 | 0.00 | 0.04 | 0.04 | 95 | 1009.0 |
| 20260502115225 | 40 | 315 | 3.5 | 4.3 | 0.00 | 0.04 | 0.04 | 95 | 1009.0 |
| 20260502114720 | 40 | 289 | 1.7 | 2.6 | 0.00 | 0.04 | 0.04 | 96 | 1009.0 |
| 20260502114218 | 39 | 276 | 2.6 | 2.6 | 0.00 | 0.04 | 0.04 | 96 | 1009.2 |
| 20260502113715 | 39 | 347 | 1.7 | 1.7 | 0.00 | 0.04 | 0.04 | 97 | 1009.4 |
| 20260502113213 | 39 | 320 | 1.7 | 2.6 | 0.00 | 0.04 | 0.04 | 97 | 1009.0 |
| 20260502112711 | 39 | 128 | 0.9 | 0.9 | 0.00 | 0.04 | 0.04 | 98 | 1009.1 |
| 20260502112208 | 39 | 47 | 0.0 | 0.9 | 0.00 | 0.04 | 0.04 | 98 | 1009.1 |
| 20260502111705 | 39 | 14 | 0.9 | 0.9 | 0.00 | 0.04 | 0.04 | 98 | 1008.8 |
| 20260502111203 | 39 | 306 | 0.0 | 0.0 | 0.00 | 0.04 | 0.04 | 98 | 1008.9 |
| 20260502110700 | 39 | 20 | 0.0 | 0.0 | 0.00 | 0.04 | 0.04 | 98 | 1008.8 |
| 20260502110157 | 39 | 61 | 0.9 | 0.9 | 0.00 | 0.04 | 0.04 | 98 | 1008.9 |
| 20260502105655 | 39 | 73 | 0.0 | 0.0 | 0.00 | 0.04 | 0.04 | 98 | 1008.9 |
| 20260502105152 | 39 | 23 | 0.0 | 0.9 | 0.00 | 0.04 | 0.04 | 98 | 1008.8 |
| 20260502104649 | 39 | 241 | 1.7 | 1.7 | 0.00 | 0.04 | 0.04 | 98 | 1008.7 |
| 20260502104147 | 39 | 338 | 0.9 | 1.7 | 0.00 | 0.04 | 0.04 | 98 | 1008.7 |
| 20260502103644 | 39 | 170 | 0.9 | 1.7 | 0.00 | 0.04 | 0.04 | 99 | 1008.6 |
| 20260502103142 | 39 | 328 | 2.6 | 2.6 | 0.00 | 0.04 | 0.04 | 99 | 1008.6 |
| 20260502102638 | 39 | 16 | 0.0 | 0.0 | 0.00 | 0.04 | 0.04 | 99 | 1008.7 |
| 20260502102135 | 39 | 5 | 0.9 | 0.9 | 0.00 | 0.04 | 0.04 | 99 | 1008.7 |
| 20260502101633 | 39 | 312 | 2.6 | 4.3 | 0.00 | 0.04 | 0.04 | 99 | 1008.5 |
| 20260502101131 | 39 | 328 | 2.6 | 2.6 | 0.00 | 0.04 | 0.04 | 99 | 1008.4 |
| 20260502100629 | 39 | 340 | 2.6 | 2.6 | 0.00 | 0.04 | 0.04 | 99 | 1008.3 |
| 20260502100127 | 39 | 345 | 0.0 | 0.0 | 0.00 | 0.04 | 0.04 | 99 | 1008.3 |
| 20260502091101 | 40 | 30 | 0.0 | 0.0 | 0.00 | 0.04 | 0.04 | 99 | 1008.1 |
| 20260502090558 | 40 | 33 | 0.9 | 0.9 | 0.00 | 0.04 | 0.04 | 99 | 1008.1 |
| 20260502071452 | 43 | 73 | 0.0 | 0.0 | 0.00 | 0.02 | 0.02 | 99 | 1007.9 |
| 20260502070950 | 43 | 71 | 0.0 | 0.0 | 0.00 | 0.02 | 0.02 | 99 | 1007.8 |
| 20260502070448 | 43 | 71 | 0.0 | 0.0 | 0.00 | 0.02 | 0.02 | 99 | 1007.8 |
| 20260502065946 | 43 | 75 | 0.0 | 0.0 | 0.00 | 0.02 | 0.02 | 99 | 1007.7 |
| 20260502065445 | 43 | 75 | 0.0 | 0.0 | 0.00 | 0.02 | 0.02 | 99 | 1007.9 |
| 20260502064942 | 43 | 76 | 0.0 | 0.0 | 0.00 | 0.02 | 0.02 | 99 | 1007.9 |
| 20260502064440 | 43 | 72 | 0.0 | 0.0 | 0.00 | 0.02 | 0.02 | 99 | 1008.0 |
| 20260502063937 | 43 | 84 | 0.0 | 0.0 | 0.00 | 0.02 | 0.02 | 99 | 1008.1 |
| 20260502063435 | 43 | 82 | 0.0 | 0.0 | 0.00 | 0.02 | 0.02 | 99 | 1007.9 |
| 20260502062932 | 43 | 83 | 0.0 | 0.0 | 0.00 | 0.02 | 0.02 | 99 | 1007.9 |
| 20260502062429 | 43 | 83 | 0.0 | 0.0 | 0.00 | 0.02 | 0.02 | 99 | 1008.1 |
| 20260502061928 | 43 | 86 | 0.0 | 0.0 | 0.00 | 0.02 | 0.02 | 99 | 1008.1 |
| 20260502061426 | 43 | 69 | 0.0 | 0.0 | 0.00 | 0.02 | 0.02 | 99 | 1008.0 |
| 20260502060921 | 43 | 86 | 0.0 | 0.0 | 0.00 | 0.02 | 0.02 | 99 | 1008.0 |
| 20260502060416 | 43 | 65 | 0.0 | 0.0 | 0.00 | 0.02 | 0.02 | 99 | 1007.8 |
| 20260502055914 | 43 | 58 | 0.0 | 0.0 | 0.00 | 0.02 | 0.02 | 99 | 1007.7 |
| 20260502055412 | 43 | 60 | 0.0 | 0.0 | 0.00 | 0.02 | 0.02 | 99 | 1007.7 |
| 20260502054912 | 43 | 60 | 0.0 | 0.0 | 0.00 | 0.02 | 0.02 | 99 | 1008.0 |
| 20260502054409 | 43 | 60 | 0.0 | 0.0 | 0.00 | 0.02 | 0.02 | 99 | 1008.3 |
| 20260502053906 | 43 | 60 | 0.0 | 0.0 | 0.00 | 0.02 | 0.02 | 99 | 1008.3 |
| 20260502053404 | 43 | 60 | 0.0 | 0.0 | 0.00 | 0.02 | 0.02 | 99 | 1008.2 |
| 20260502052900 | 43 | 60 | 0.0 | 0.0 | 0.00 | 0.02 | 0.02 | 99 | 1008.1 |
| 20260502052358 | 43 | 60 | 0.0 | 0.0 | 0.00 | 0.02 | 0.02 | 99 | 1008.3 |
| 20260502051856 | 43 | 59 | 0.0 | 0.0 | 0.00 | 0.02 | 0.02 | 99 | 1008.2 |
| 20260502051355 | 43 | 59 | 0.0 | 0.0 | 0.00 | 0.02 | 0.02 | 99 | 1008.4 |
| 20260502050851 | 43 | 58 | 0.0 | 0.0 | 0.00 | 0.02 | 0.02 | 99 | 1008.3 |
| 20260502050347 | 43 | 58 | 0.0 | 0.0 | 0.00 | 0.02 | 0.02 | 99 | 1008.4 |
| 20260502045844 | 43 | 58 | 0.0 | 0.0 | 0.00 | 0.02 | 0.02 | 99 | 1008.2 |
| 20260502045341 | 43 | 57 | 0.0 | 0.0 | 0.00 | 0.02 | 0.02 | 99 | 1008.1 |
| 20260502044838 | 43 | 58 | 0.0 | 0.0 | 0.00 | 0.02 | 0.02 | 99 | 1008.4 |
| 20260502044334 | 43 | 58 | 0.0 | 0.0 | 0.00 | 0.02 | 0.02 | 99 | 1008.3 |
| 20260502043831 | 43 | 55 | 0.0 | 0.0 | 0.00 | 0.02 | 0.02 | 99 | 1008.4 |
| 20260502043329 | 43 | 54 | 0.0 | 0.0 | 0.00 | 0.02 | 0.02 | 99 | 1008.2 |
| 20260502042828 | 43 | 54 | 0.0 | 0.0 | 0.00 | 0.02 | 0.02 | 99 | 1008.3 |
| 20260502042326 | 43 | 57 | 0.0 | 0.0 | 0.12 | 0.02 | 0.02 | 99 | 1008.4 |
| 20260502041823 | 43 | 56 | 0.0 | 0.0 | 0.12 | 0.02 | 0.02 | 99 | 1008.2 |
| 20260502041320 | 43 | 38 | 0.0 | 0.9 | 0.00 | 0.00 | 0.00 | 99 | 1008.7 |
| 20260502040818 | 43 | 38 | 0.9 | 0.9 | 0.00 | 0.00 | 0.00 | 99 | 1008.5 |
| 20260502040314 | 44 | 34 | 0.9 | 0.9 | 0.00 | 0.00 | 0.00 | 99 | 1008.4 |
| 20260502035810 | 44 | 50 | 0.0 | 0.9 | 0.00 | 0.07 | 0.07 | 99 | 1008.3 |
| 20260502035307 | 44 | 53 | 0.0 | 0.0 | 0.00 | 0.07 | 0.07 | 99 | 1008.3 |
| 20260502034804 | 43 | 54 | 0.0 | 0.0 | 0.00 | 0.07 | 0.07 | 99 | 1008.1 |
| 20260502034303 | 43 | 54 | 0.0 | 0.0 | 0.00 | 0.07 | 0.07 | 99 | 1008.2 |
| 20260502033801 | 43 | 54 | 0.0 | 0.0 | 0.00 | 0.07 | 0.07 | 98 | 1008.1 |
| 20260502033258 | 43 | 54 | 0.0 | 0.0 | 0.00 | 0.07 | 0.07 | 98 | 1008.0 |
| 20260502032755 | 44 | 54 | 0.0 | 0.0 | 0.07 | 0.07 | 0.07 | 98 | 1008.2 |
| 20260502032251 | 44 | 54 | 0.0 | 0.0 | 0.07 | 0.07 | 0.07 | 98 | 1008.4 |
| 20260502031749 | 44 | 54 | 0.0 | 0.0 | 0.05 | 0.06 | 0.06 | 98 | 1008.4 |
| 20260502031246 | 44 | 53 | 0.0 | 0.0 | 0.12 | 0.06 | 0.06 | 98 | 1008.3 |
| 20260502030745 | 44 | 50 | 0.0 | 0.0 | 0.07 | 0.05 | 0.05 | 98 | 1008.6 |
| 20260502030242 | 44 | 50 | 0.0 | 0.9 | 0.07 | 0.05 | 0.05 | 98 | 1008.6 |
| 20260502025739 | 44 | 49 | 0.0 | 0.9 | 0.00 | 0.04 | 0.04 | 97 | 1008.6 |
| 20260502025237 | 44 | 53 | 0.0 | 0.0 | 0.00 | 0.04 | 0.04 | 97 | 1008.7 |
| 20260502024735 | 44 | 53 | 0.0 | 0.9 | 0.00 | 0.04 | 0.04 | 97 | 1008.4 |
| 20260502024233 | 44 | 53 | 0.0 | 0.9 | 0.00 | 0.04 | 0.04 | 96 | 1008.6 |
| 20260502023731 | 44 | 53 | 0.0 | 0.0 | 0.00 | 0.04 | 0.04 | 96 | 1008.4 |
| 20260502023228 | 44 | 54 | 0.0 | 0.0 | 0.07 | 0.04 | 0.04 | 95 | 1008.4 |
| 20260502022726 | 44 | 54 | 0.0 | 0.0 | 0.07 | 0.04 | 0.04 | 95 | 1008.7 |
| 20260502022222 | 44 | 53 | 0.9 | 0.9 | 0.05 | 0.03 | 0.03 | 93 | 1008.5 |
| 20260502021719 | 45 | 53 | 0.0 | 0.0 | 0.12 | 0.03 | 0.03 | 92 | 1008.6 |
| 20260502021216 | 45 | 53 | 0.0 | 0.9 | 0.07 | 0.02 | 0.02 | 91 | 1008.6 |
| 20260502020713 | 45 | 56 | 0.0 | 0.0 | 0.12 | 0.02 | 0.02 | 89 | 1008.8 |
| 20260502020210 | 46 | 53 | 0.0 | 0.0 | 0.05 | 0.01 | 0.01 | 87 | 1008.8 |
| 20260502015708 | 46 | 67 | 0.0 | 0.0 | 0.00 | 0.00 | 0.00 | 83 | 1008.7 |
| 20260502015204 | 47 | 67 | 0.0 | 0.0 | 0.00 | 0.00 | 0.00 | 80 | 1008.6 |
| 20260502014702 | 48 | 70 | 0.0 | 0.0 | 0.00 | 0.00 | 0.00 | 76 | 1008.5 |
| 20260502014159 | 48 | 88 | 0.0 | 0.9 | 0.00 | 0.00 | 0.00 | 73 | 1008.5 |
| 20260502013654 | 48 | 86 | 0.0 | 0.0 | 0.00 | 0.00 | 0.00 | 73 | 1008.4 |
| 20260502013150 | 48 | 53 | 0.0 | 0.0 | 0.00 | 0.00 | 0.00 | 71 | 1008.5 |
| 20260502012648 | 48 | 57 | 0.0 | 0.0 | 0.00 | 0.00 | 0.00 | 72 | 1008.5 |
| 20260502012146 | 48 | 56 | 0.0 | 0.9 | 0.00 | 0.00 | 0.00 | 72 | 1008.4 |
| 20260502011642 | 48 | 56 | 0.0 | 0.9 | 0.00 | 0.00 | 0.00 | 71 | 1008.3 |
| 20260502011138 | 48 | 142 | 0.9 | 0.9 | 0.00 | 0.00 | 0.00 | 71 | 1008.3 |
| 20260502010636 | 48 | 54 | 0.0 | 0.0 | 0.00 | 0.00 | 0.00 | 70 | 1008.3 |
| 20260502010132 | 48 | 55 | 0.0 | 0.0 | 0.00 | 0.00 | 0.00 | 70 | 1008.0 |
| 20260502005629 | 48 | 55 | 0.0 | 0.0 | 0.00 | 0.00 | 0.00 | 69 | 1008.0 |
| 20260502005127 | 48 | 55 | 0.0 | 0.0 | 0.00 | 0.00 | 0.00 | 70 | 1008.2 |
| 20260502004622 | 48 | 55 | 0.0 | 0.0 | 0.00 | 0.00 | 0.00 | 68 | 1007.9 |
| 20260502004120 | 49 | 55 | 0.0 | 0.0 | 0.00 | 0.00 | 0.00 | 67 | 1007.8 |
| 20260502003618 | 49 | 55 | 0.0 | 0.0 | 0.00 | 0.00 | 0.00 | 66 | 1007.8 |
| 20260502003114 | 49 | 55 | 0.0 | 0.0 | 0.00 | 0.00 | 0.00 | 65 | 1007.9 |
| 20260502002610 | 50 | 219 | 0.0 | 0.0 | 0.00 | 0.00 | 0.00 | 63 | 1007.9 |
| 20260502002108 | 50 | 105 | 0.0 | 0.0 | 0.00 | 0.00 | 0.00 | 62 | 1007.8 |
| 20260502001606 | 50 | 69 | 0.0 | 0.0 | 0.00 | 0.00 | 0.00 | 62 | 1007.6 |
| 20260502001102 | 50 | 62 | 0.0 | 0.0 | 0.00 | 0.00 | 0.00 | 62 | 1007.6 |
| 20260502000601 | 51 | 79 | 0.0 | 0.0 | 0.00 | 0.00 | 0.00 | 60 | 1007.7 |
| 20260502000057 | 51 | 52 | 0.0 | 0.9 | 0.00 | 0.00 | 0.00 | 59 | 1007.6 |
| 20260501235553 | 51 | 39 | 0.0 | 0.9 | 0.00 | 0.00 | 0.00 | 59 | 1007.9 |
| 20260501235049 | 51 | 85 | 0.9 | 0.9 | 0.00 | 0.00 | 0.00 | 58 | 1007.8 |
| 20260501234545 | 51 | 39 | 0.9 | 0.9 | 0.00 | 0.00 | 0.00 | 58 | 1007.6 |
| 20260501234043 | 51 | 3 | 0.9 | 0.9 | 0.00 | 0.00 | 0.00 | 57 | 1007.5 |
| 20260501233541 | 51 | 40 | 0.9 | 0.9 | 0.00 | 0.00 | 0.00 | 57 | 1007.6 |
| 20260501233038 | 51 | 47 | 0.0 | 0.0 | 0.00 | 0.00 | 0.00 | 56 | 1007.7 |
| 20260501232534 | 52 | 67 | 0.0 | 0.0 | 0.00 | 0.00 | 0.00 | 57 | 1007.6 |
| 20260501232031 | 52 | 69 | 0.0 | 0.0 | 0.00 | 0.00 | 0.00 | 55 | 1007.4 |
| 20260501231529 | 52 | 35 | 0.0 | 0.0 | 0.00 | 0.00 | 0.00 | 55 | 1007.5 |
| 20260501231027 | 52 | 35 | 0.0 | 0.0 | 0.00 | 0.00 | 0.00 | 54 | 1007.3 |
| 20260501230526 | 52 | 35 | 0.9 | 0.9 | 0.00 | 0.00 | 0.00 | 54 | 1007.5 |
| 20260501230023 | 52 | 25 | 0.9 | 0.9 | 0.00 | 0.00 | 0.00 | 54 | 1007.5 |
| 20260501225521 | 52 | 322 | 1.7 | 1.7 | 0.00 | 0.00 | 0.00 | 55 | 1007.3 |
| 20260501225016 | 52 | 32 | 0.9 | 0.9 | 0.00 | 0.00 | 0.00 | 54 | 1007.4 |
| 20260501224514 | 52 | 335 | 1.7 | 1.7 | 0.00 | 0.00 | 0.00 | 54 | 1007.2 |
| 20260501224011 | 52 | 339 | 1.7 | 2.6 | 0.00 | 0.00 | 0.00 | 53 | 1007.4 |
| 20260501223507 | 53 | 318 | 2.6 | 2.6 | 0.00 | 0.00 | 0.00 | 52 | 1007.2 |
| 20260501223003 | 53 | 325 | 2.6 | 2.6 | 0.00 | 0.00 | 0.00 | 51 | 1007.1 |
| 20260501222500 | 54 | 301 | 2.6 | 2.6 | 0.00 | 0.00 | 0.00 | 50 | 1007.1 |
| 20260501221956 | 54 | 280 | 2.6 | 2.6 | 0.00 | 0.00 | 0.00 | 49 | 1007.0 |
| 20260501221453 | 54 | 80 | 0.0 | 0.9 | 0.00 | 0.00 | 0.00 | 52 | 1007.2 |
| 20260501220951 | 54 | 355 | 0.9 | 0.9 | 0.00 | 0.00 | 0.00 | 49 | 1007.0 |
| 20260501220449 | 54 | 23 | 0.9 | 0.9 | 0.00 | 0.00 | 0.00 | 49 | 1006.9 |
| 20260501215945 | 55 | 341 | 1.7 | 2.6 | 0.00 | 0.00 | 0.00 | 49 | 1006.7 |
| 20260501215442 | 55 | 40 | 0.9 | 0.9 | 0.00 | 0.00 | 0.00 | 48 | 1007.0 |
| 20260501214937 | 55 | 7 | 0.9 | 1.7 | 0.00 | 0.00 | 0.00 | 48 | 1006.9 |
| 20260501214433 | 54 | 52 | 0.9 | 0.9 | 0.00 | 0.00 | 0.00 | 48 | 1006.9 |
| 20260501213928 | 54 | 29 | 0.9 | 1.7 | 0.00 | 0.00 | 0.00 | 47 | 1006.9 |
| 20260501213426 | 55 | 312 | 2.6 | 2.6 | 0.00 | 0.00 | 0.00 | 48 | 1006.9 |
| 20260501212921 | 55 | 335 | 1.7 | 1.7 | 0.00 | 0.00 | 0.00 | 47 | 1007.0 |
| 20260501212418 | 55 | 30 | 0.9 | 0.9 | 0.00 | 0.00 | 0.00 | 47 | 1006.7 |
| 20260501211915 | 56 | 7 | 0.9 | 0.9 | 0.00 | 0.00 | 0.00 | 48 | 1006.9 |
| 20260501211412 | 55 | 324 | 2.6 | 2.6 | 0.00 | 0.00 | 0.00 | 47 | 1007.0 |
| 20260501210910 | 56 | 299 | 3.5 | 4.3 | 0.00 | 0.00 | 0.00 | 47 | 1006.9 |
| 20260501210406 | 56 | 33 | 0.9 | 0.9 | 0.00 | 0.00 | 0.00 | 46 | 1006.7 |
| 20260501205903 | 57 | 316 | 3.5 | 4.3 | 0.00 | 0.00 | 0.00 | 46 | 1006.7 |
| 20260501205400 | 56 | 249 | 1.7 | 1.7 | 0.00 | 0.00 | 0.00 | 46 | 1006.9 |
| 20260501204856 | 55 | 37 | 1.7 | 1.7 | 0.00 | 0.00 | 0.00 | 48 | 1007.1 |
| 20260501204353 | 55 | 305 | 2.6 | 4.3 | 0.00 | 0.00 | 0.00 | 48 | 1006.9 |
| 20260501203849 | 55 | 34 | 0.9 | 0.9 | 0.00 | 0.00 | 0.00 | 46 | 1006.7 |
| 20260501203346 | 56 | 336 | 1.7 | 1.7 | 0.00 | 0.00 | 0.00 | 46 | 1006.9 |
| 20260501202843 | 54 | 353 | 2.6 | 2.6 | 0.00 | 0.00 | 0.00 | 49 | 1006.6 |
| 20260501202340 | 53 | 340 | 1.7 | 1.7 | 0.00 | 0.00 | 0.00 | 48 | 1007.0 |
| 20260501201837 | 53 | 353 | 0.9 | 1.7 | 0.00 | 0.00 | 0.00 | 49 | 1006.7 |
| 20260501201334 | 54 | 309 | 1.7 | 1.7 | 0.00 | 0.00 | 0.00 | 47 | 1006.7 |
| 20260501200830 | 54 | 2 | 0.9 | 1.7 | 0.00 | 0.00 | 0.00 | 47 | 1006.9 |
| 20260501200327 | 55 | 309 | 1.7 | 1.7 | 0.00 | 0.00 | 0.00 | 46 | 1007.0 |
| 20260501195825 | 57 | 274 | 0.0 | 0.9 | 0.00 | 0.00 | 0.00 | 43 | 1007.0 |
| 20260501195321 | 58 | 20 | 0.9 | 1.7 | 0.00 | 0.00 | 0.00 | 43 | 1006.7 |
| 20260501194817 | 55 | 7 | 1.7 | 1.7 | 0.00 | 0.00 | 0.00 | 47 | 1007.0 |
| 20260501194314 | 54 | 21 | 0.9 | 0.9 | 0.00 | 0.00 | 0.00 | 50 | 1007.1 |
| 20260501193810 | 53 | 45 | 0.9 | 1.7 | 0.00 | 0.00 | 0.00 | 47 | 1007.1 |
| 20260501193309 | 53 | 40 | 0.9 | 0.9 | 0.00 | 0.00 | 0.00 | 49 | 1006.9 |
| 20260501192805 | 53 | 88 | 0.0 | 0.9 | 0.00 | 0.00 | 0.00 | 47 | 1007.1 |
| 20260501192306 | 54 | 348 | 2.6 | 2.6 | 0.00 | 0.00 | 0.00 | 47 | 1006.9 |
| 20260501191759 | 55 | 40 | 0.9 | 0.9 | 0.00 | 0.00 | 0.00 | 47 | 1007.1 |
| 20260501191256 | 55 | 357 | 2.6 | 2.6 | 0.00 | 0.00 | 0.00 | 45 | 1006.7 |
| 20260501190753 | 58 | 307 | 2.6 | 2.6 | 0.00 | 0.00 | 0.00 | 42 | 1007.3 |
| 20260501190249 | 58 | 257 | 1.7 | 1.7 | 0.00 | 0.00 | 0.00 | 42 | 1007.1 |
| 20260501185744 | 59 | 273 | 0.9 | 1.7 | 0.00 | 0.00 | 0.00 | 43 | 1007.2 |
| 20260501185240 | 56 | 17 | 1.7 | 2.6 | 0.00 | 0.00 | 0.00 | 46 | 1007.5 |
| 20260501184737 | 54 | 312 | 1.7 | 1.7 | 0.00 | 0.00 | 0.00 | 47 | 1007.2 |
| 20260501184232 | 54 | 322 | 3.5 | 4.3 | 0.00 | 0.00 | 0.00 | 45 | 1007.4 |
| 20260501183728 | 57 | 322 | 2.6 | 2.6 | 0.00 | 0.00 | 0.00 | 42 | 1007.4 |
| 20260501183226 | 57 | 319 | 1.7 | 1.7 | 0.00 | 0.00 | 0.00 | 44 | 1007.3 |
| 20260501182722 | 58 | 32 | 1.7 | 1.7 | 0.00 | 0.00 | 0.00 | 44 | 1007.2 |
| 20260501182219 | 58 | 326 | 1.7 | 1.7 | 0.00 | 0.00 | 0.00 | 41 | 1007.3 |
| 20260501181715 | 59 | 294 | 1.7 | 1.7 | 0.00 | 0.00 | 0.00 | 46 | 1007.6 |
| 20260501181213 | 58 | 352 | 2.6 | 2.6 | 0.00 | 0.00 | 0.00 | 44 | 1007.5 |
| 20260501180711 | 57 | 330 | 2.6 | 4.3 | 0.00 | 0.00 | 0.00 | 45 | 1007.7 |
| 20260501180207 | 57 | 47 | 0.9 | 0.9 | 0.00 | 0.00 | 0.00 | 42 | 1007.6 |
| 20260501175703 | 56 | 323 | 2.6 | 2.6 | 0.00 | 0.00 | 0.00 | 44 | 1007.6 |
| 20260501175200 | 56 | 324 | 2.6 | 2.6 | 0.00 | 0.00 | 0.00 | 46 | 1007.7 |
| 20260501174657 | 56 | 14 | 2.6 | 2.6 | 0.00 | 0.00 | 0.00 | 44 | 1007.6 |
| 20260501174155 | 55 | 208 | 1.7 | 1.7 | 0.00 | 0.00 | 0.00 | 44 | 1007.7 |
| 20260501173652 | 56 | 310 | 1.7 | 2.6 | 0.00 | 0.00 | 0.00 | 46 | 1008.0 |
| 20260501173149 | 55 | 307 | 2.6 | 2.6 | 0.00 | 0.00 | 0.00 | 44 | 1008.0 |
| 20260501172645 | 55 | 310 | 2.6 | 2.6 | 0.00 | 0.00 | 0.00 | 44 | 1007.9 |
| 20260501172140 | 56 | 328 | 3.5 | 5.2 | 0.00 | 0.00 | 0.00 | 41 | 1007.9 |
| 20260501171636 | 56 | 7 | 1.7 | 2.6 | 0.00 | 0.00 | 0.00 | 42 | 1007.8 |
| 20260501171133 | 54 | 303 | 0.9 | 1.7 | 0.00 | 0.00 | 0.00 | 48 | 1008.1 |
| 20260501170630 | 55 | 317 | 1.7 | 2.6 | 0.00 | 0.00 | 0.00 | 43 | 1007.8 |
| 20260501170127 | 55 | 44 | 1.7 | 1.7 | 0.00 | 0.00 | 0.00 | 46 | 1007.9 |
| 20260501165624 | 56 | 8 | 2.6 | 2.6 | 0.00 | 0.00 | 0.00 | 44 | 1008.0 |
| 20260501165121 | 55 | 297 | 1.7 | 1.7 | 0.00 | 0.00 | 0.00 | 43 | 1008.1 |
| 20260501164620 | 53 | 1 | 0.0 | 0.9 | 0.00 | 0.00 | 0.00 | 45 | 1008.0 |
| 20260501164116 | 55 | 317 | 2.6 | 2.6 | 0.00 | 0.00 | 0.00 | 43 | 1008.0 |
| 20260501163613 | 54 | 298 | 5.2 | 6.1 | 0.00 | 0.00 | 0.00 | 43 | 1008.4 |
| 20260501163110 | 55 | 278 | 6.1 | 6.1 | 0.00 | 0.00 | 0.00 | 42 | 1008.4 |
| 20260501162606 | 54 | 340 | 3.5 | 5.2 | 0.00 | 0.00 | 0.00 | 45 | 1008.2 |
| 20260501162103 | 54 | 290 | 1.7 | 1.7 | 0.00 | 0.00 | 0.00 | 43 | 1008.2 |
| 20260501161600 | 55 | 317 | 6.1 | 6.1 | 0.00 | 0.00 | 0.00 | 44 | 1008.4 |
| 20260501161057 | 54 | 17 | 1.7 | 1.7 | 0.00 | 0.00 | 0.00 | 48 | 1008.5 |
| 20260501160554 | 55 | 19 | 3.5 | 5.2 | 0.00 | 0.00 | 0.00 | 44 | 1008.4 |
| 20260501160050 | 55 | 221 | 0.9 | 1.7 | 0.00 | 0.00 | 0.00 | 44 | 1008.5 |
| 20260501155547 | 54 | 301 | 1.7 | 1.7 | 0.00 | 0.00 | 0.00 | 50 | 1008.2 |
| 20260501155044 | 53 | 269 | 2.6 | 4.3 | 0.00 | 0.00 | 0.00 | 49 | 1008.5 |
| 20260501154542 | 53 | 190 | 2.6 | 6.1 | 0.00 | 0.00 | 0.00 | 46 | 1008.5 |
| 20260501154039 | 53 | 163 | 2.6 | 2.6 | 0.00 | 0.00 | 0.00 | 52 | 1008.5 |
| 20260501153536 | 53 | 312 | 4.3 | 5.2 | 0.00 | 0.00 | 0.00 | 49 | 1008.6 |
| 20260501153032 | 54 | 213 | 1.7 | 1.7 | 0.00 | 0.00 | 0.00 | 52 | 1008.6 |
| 20260501152529 | 52 | 42 | 0.9 | 1.7 | 0.00 | 0.00 | 0.00 | 50 | 1008.8 |
| 20260501152027 | 53 | 326 | 4.3 | 5.2 | 0.00 | 0.00 | 0.00 | 49 | 1008.5 |
| 20260501151523 | 53 | 320 | 2.6 | 2.6 | 0.00 | 0.00 | 0.00 | 53 | 1008.8 |
| 20260501151020 | 53 | 17 | 1.7 | 1.7 | 0.00 | 0.00 | 0.00 | 51 | 1008.8 |
| 20260501150515 | 52 | 22 | 1.7 | 1.7 | 0.00 | 0.00 | 0.00 | 50 | 1008.6 |
| 20260501150013 | 52 | 27 | 1.7 | 2.6 | 0.00 | 0.00 | 0.00 | 51 | 1008.6 |
| 20260501145509 | 52 | 305 | 3.5 | 4.3 | 0.00 | 0.00 | 0.00 | 52 | 1008.7 |